Location: Caltech
(34.1382°N, 118.1253°W)
Time: 04:14:08
(UTC-07:00)

Iridium 18 - Visible Passes

Search period start: 20 April 2014 00:00
Search period end: 30 April 2014 00:00
Orbit: 776 x 779 km, 86.4° (Epoch: 19 April)

Date Brightness Start Highest point End Pass type
(mag) Time Alt. Az. Time Alt. Az. Time Alt. Az.
20 Apr 5.8 20:09:33 10° SSE 20:14:30 47° E 20:19:28 10° NNE visible
20 Apr 8.2 21:52:18 10° WSW 21:55:25 16° WNW 21:58:34 10° NW visible
21 Apr 7.3 21:17:08 10° SW 21:21:40 30° W 21:26:14 10° NNW visible
22 Apr 6.1 20:42:56 10° SSW 20:48:03 59° W 20:53:11 10° N visible
23 Apr 5.5 20:09:23 10° S 20:14:32 71° E 20:19:43 10° N visible
23 Apr 8.7 21:55:07 10° W 21:55:44 10° WNW 21:56:21 10° WNW visible
24 Apr 8.0 21:18:04 10° SW 21:21:54 21° W 21:25:45 10° NNW visible
25 Apr 7.0 20:43:21 10° SSW 20:48:12 39° W 20:53:04 10° NNW visible
26 Apr 5.7 20:09:25 10° S 20:14:37 78° W 20:19:50 10° N visible
27 Apr 8.5 21:19:34 10° WSW 21:22:10 14° WNW 21:24:46 10° NW visible
28 Apr 7.8 20:44:03 10° SW 20:48:23 27° W 20:52:44 10° NNW visible
29 Apr 6.5 20:09:41 10° SSW 20:14:43 51° W 20:19:48 10° N visible
